Location: Berg
(48.4333°N, 13.9167°E)
Time: 05:52:56
(UTC+00:00)

ATLAS CENTAUR R/B - Pass Details

Date: 24 January 2021
Orbit: 475 x 670 km, 64.7° (Epoch: 06 March)

Event Time Altitude Azimuth Distance (km) Brightness Sun altitude
Exits shadow 04:20:46 - 179° (S) 1,754 3.9 -23.3°
Reaches altitude 10° 04:21:03 10° 177° (S) 1,653 3.8 -23.3°
Maximum altitude 04:24:10 27° 118° (ESE) 954 3.1 -22.8°
Drops below altitude 10° 04:27:17 10° 60° (ENE) 1,650 4.5 -22.3°
Sets 04:29:38 0° 48° (NE) 2,539 5.3 -21.9°
